QPF
0.00 0.00 0.00 0.00 0.00 0.01 0.00 0.00 0.00 0.00 0.00 0.00 0.00 0.00 0.00 0.00 0.00 0.00 0.00 0.00 0.00 0.00 0.00 0.00 0.00 0.00 0.00 0.00 0.00 0.00 0.00 0.01 0.02 0.02 0.03 0.05 0.04 0.06 0.07 0.07 0.06 0.05 0.06 0.08
0.00 0.00 0.00 0.00 0.00 0.00 0.00 0.00 0.00 0.00 0.00 0.00 0.01 0.00 0.00 0.00 0.00 0.00 0.00 0.00 0.00 0.00 0.00 0.00 0.00 0.00 0.00 0.00 0.00 0.00 0.00 0.00 0.01 0.02 0.03 0.05 0.04 0.03 0.05 0.05 0.07 0.06 0.06 0.07
0.00 0.00 0.01 0.00 0.00 0.01 0.01 0.00 0.00 0.00 0.00 0.00 0.00 0.01 0.00 0.00 0.00 0.00 0.00 0.00 0.00 0.00 0.00 0.00 0.00 0.00 0.00 0.00 0.00 0.00 0.01 0.01 0.01 0.02 0.02 0.02 0.04 0.04 0.04 0.04 0.07 0.06 0.04 0.04
0.02 0.01 0.00 0.00 0.00 0.00 0.01 0.00 0.00 0.00 0.00 0.00 0.00 0.01 0.01 0.00 0.00 0.00 0.00 0.00 0.00 0.00 0.00 0.00 0.00 0.00 0.00 0.00 0.00 0.01 0.01 0.01 0.01 0.01 0.01 0.02 0.02 0.03 0.05 0.05 0.06 0.05 0.04 0.03
0.00 0.01 0.01 0.00 0.00 0.00 0.00 0.00 0.00 0.00 0.00 0.01 0.00 0.00 0.01 0.01 0.00 0.00 0.00 0.00 0.00 0.01 0.01 0.00 0.00 0.00 0.00 0.00 0.00 0.00 0.01 0.01 0.02 0.02 0.02 0.03 0.02 0.03 0.04 0.04 0.05 0.04 0.05 0.04
0.00 0.00 0.00 0.00 0.00 0.00 0.00 0.00 0.00 0.00 0.01 0.01 0.00 0.00 0.00 0.00 0.00 0.00 0.00 0.00 0.00 0.00 0.01 0.01 0.00 0.00 0.00 0.00 0.00 0.00 0.00 0.01 0.02 0.02 0.02 0.03 0.04 0.04 0.05 0.05 0.05 0.04 0.05 0.06
0.00 0.00 0.00 0.00 0.00 0.00 0.01 0.01 0.01 0.01 0.01 0.00 0.00 0.00 0.00 0.01 0.01 0.00 0.00 0.00 0.00 0.00 0.00 0.01 0.01 0.00 0.00 0.00 0.00 0.00 0.01 0.01 0.02 0.02 0.02 0.02 0.02 0.03 0.04 0.04 0.04 0.04 0.05 0.05
0.00 0.00 0.00 0.00 0.00 0.00 0.00 0.01 0.01 0.01 0.01 0.00 0.00 0.00 0.00 0.01 0.00 0.00 0.00 0.00 0.00 0.00 0.00 0.01 0.01 0.01 0.00 0.00 0.00 0.00 0.01 0.01 0.02 0.02 0.02 0.01 0.01 0.01 0.01 0.02 0.02 0.03 0.03 0.02
0.00 0.00 0.00 0.00 0.00 0.00 0.00 0.01 0.01 0.01 0.00 0.00 0.00 0.00 0.00 0.00 0.00 0.00 0.00 0.00 0.00 0.00 0.00 0.00 0.00 0.01 0.01 0.01 0.00 0.00 0.01 0.02 0.02 0.01 0.01 0.01 0.01 0.01 0.01 0.02 0.01 0.01 0.01 0.02
0.01 0.01 0.00 0.00 0.00 0.00 0.00 0.00 0.02 0.01 0.00 0.00 0.00 0.00 0.00 0.00 0.01 0.00 0.00 0.00 0.00 0.00 0.00 0.00 0.00 0.00 0.01 0.02 0.01 0.01 0.01 0.02 0.02 0.02 0.01 0.01 0.01 0.01 0.01 0.01 0.01 0.01 0.01 0.01
0.00 0.00 0.00 0.00 0.00 0.00 0.00 0.01 0.02 0.01 0.00 0.00 0.00 0.01 0.00 0.00 0.01 0.00 0.00 0.00 0.00 0.00 0.00 0.01 0.00 0.00 0.00 0.01 0.01 0.01 0.01 0.01 0.02 0.01 0.01 0.01 0.01 0.01 0.01 0.01 0.01 0.02 0.01 0.01
0.00 0.00 0.00 0.00 0.00 0.00 0.00 0.00 0.01 0.01 0.01 0.01 0.00 0.00 0.01 0.01 0.01 0.01 0.00 0.00 0.00 0.00 0.01 0.01 0.02 0.02 0.01 0.01 0.01 0.00 0.00 0.01 0.01 0.01 0.01 0.01 0.01 0.01 0.01 0.01 0.01 0.01 0.01 0.01
0.00 0.00 0.00 0.00 0.00 0.00 0.00 0.00 0.00 0.01 0.03 0.01 0.01 0.00 0.00 0.00 0.00 0.00 0.00 0.00 0.00 0.00 0.00 0.03 0.05 0.05 0.02 0.00 0.00 0.00 0.01 0.01 0.01 0.01 0.01 0.01 0.01 0.01 0.01 0.02 0.02 0.02 0.02 0.02
0.00 0.00 0.01 0.01 0.00 0.00 0.00 0.00 0.00 0.01 0.01 0.01 0.01 0.00 0.00 0.00 0.00 0.00 0.00 0.00 0.00 0.00 0.00 0.01 0.03 0.06 0.03 0.01 0.01 0.00 0.01 0.01 0.01 0.01 0.02 0.02 0.02 0.03 0.03 0.03 0.02 0.02 0.03 0.02
0.00 0.00 0.00 0.00 0.00 0.00 0.00 0.00 0.00 0.00 0.00 0.02 0.01 0.00 0.00 0.00 0.01 0.00 0.00 0.00 0.00 0.00 0.00 0.00 0.00 0.02 0.06 0.06 0.05 0.03 0.01 0.01 0.02 0.02 0.03 0.04 0.03 0.03 0.04 0.04 0.03 0.02 0.01 0.01
0.00 0.00 0.00 0.00 0.00 0.00 0.00 0.00 0.00 0.00 0.00 0.01 0.01 0.00 0.00 0.01 0.00 0.00 0.01 0.01 0.00 0.00 0.00 0.00 0.00 0.01 0.02 0.04 0.06 0.05 0.03 0.03 0.02 0.02 0.04 0.05 0.04 0.04 0.05 0.04 0.04 0.03 0.03 0.02
0.00 0.00 0.00 0.00 0.00 0.00 0.00 0.00 0.00 0.00 0.00 0.00 0.00 0.00 0.00 0.00 0.00 0.00 0.00 0.01 0.00 0.00 0.01 0.01 0.01 0.01 0.01 0.02 0.04 0.06 0.06 0.05 0.03 0.03 0.05 0.04 0.05 0.05 0.06 0.05 0.06 0.06 0.05 0.04
0.00 0.00 0.00 0.00 0.00 0.00 0.00 0.00 0.00 0.00 0.00 0.00 0.00 0.00 0.00 0.02 0.01 0.00 0.00 0.01 0.02 0.02 0.02 0.02 0.02 0.01 0.01 0.02 0.03 0.05 0.08 0.08 0.06 0.04 0.04 0.05 0.05 0.05 0.07 0.08 0.08 0.08 0.09 0.08
0.00 0.00 0.00 0.01 0.01 0.01 0.00 0.00 0.00 0.00 0.00 0.00 0.00 0.00 0.00 0.00 0.00 0.01 0.02 0.02 0.03 0.02 0.03 0.04 0.02 0.01 0.01 0.02 0.05 0.10 0.10 0.08 0.09 0.09 0.08 0.06 0.06 0.05 0.06 0.06 0.08 0.09 0.10 0.09
0.00 0.00 0.00 0.00 0.01 0.00 0.00 0.00 0.00 0.00 0.01 0.01 0.01 0.01 0.01 0.01 0.02 0.02 0.03 0.03 0.03 0.03 0.02 0.02 0.03 0.02 0.02 0.03 0.03 0.05 0.08 0.06 0.06 0.07 0.08 0.08 0.06 0.05 0.06 0.07 0.08 0.10 0.12 0.10
0.00 0.00 0.00 0.01 0.01 0.00 0.00 0.00 0.00 0.01 0.03 0.02 0.01 0.01 0.01 0.02 0.03 0.02 0.02 0.03 0.02 0.03 0.02 0.03 0.03 0.02 0.02 0.03 0.03 0.04 0.05 0.06 0.07 0.08 0.09 0.08 0.07 0.06 0.07 0.09 0.09 0.10 0.10 0.10
0.00 0.00 0.01 0.01 0.01 0.01 0.00 0.00 0.02 0.03 0.03 0.02 0.02 0.02 0.02 0.02 0.02 0.02 0.03 0.04 0.04 0.04 0.04 0.03 0.02 0.03 0.03 0.03 0.04 0.05 0.05 0.06 0.06 0.06 0.07 0.06 0.06 0.05 0.05 0.05 0.06 0.08 0.09 0.08
0.01 0.01 0.02 0.01 0.01 0.00 0.00 0.00 0.01 0.01 0.03 0.02 0.02 0.02 0.03 0.03 0.02 0.03 0.05 0.06 0.04 0.04 0.05 0.04 0.03 0.03 0.04 0.03 0.04 0.04 0.05 0.06 0.06 0.05 0.06 0.05 0.05 0.05 0.04 0.04 0.05 0.06 0.08 0.09
0.01 0.01 0.02 0.01 0.00 0.00 0.00 0.00 0.00 0.01 0.01 0.01 0.02 0.03 0.03 0.03 0.03 0.05 0.07 0.04 0.03 0.02 0.03 0.04 0.03 0.03 0.03 0.03 0.04 0.06 0.07 0.07 0.07 0.07 0.06 0.06 0.06 0.05 0.05 0.05 0.05 0.05 0.05 0.05
0.01 0.01 0.01 0.01 0.00 0.01 0.01 0.00 0.00 0.00 0.01 0.01 0.01 0.02 0.02 0.02 0.03 0.06 0.05 0.02 0.02 0.02 0.03 0.03 0.03 0.03 0.04 0.03 0.03 0.07 0.09 0.07 0.07 0.10 0.11 0.09 0.09 0.08 0.07 0.05 0.05 0.05 0.04 0.03
0.01 0.02 0.02 0.02 0.01 0.01 0.01 0.00 0.00 0.01 0.01 0.01 0.01 0.01 0.01 0.02 0.03 0.05 0.03 0.02 0.02 0.02 0.02 0.03 0.03 0.03 0.03 0.04 0.05 0.08 0.08 0.07 0.07 0.08 0.09 0.09 0.09 0.08 0.07 0.05 0.04 0.04 0.04 0.03
MSLP
1003.91 1004.43 1004.80 1005.03 1005.13 1005.13 1005.05 1004.90 1004.66 1004.32 1003.85 1003.26 1002.57 1001.84 1001.15 1000.59 1000.26 1000.20 1000.46 1001.01 1001.81 1002.78 1003.84 1004.90 1005.90 1006.82 1007.64 1008.39 1009.10 1009.78 1010.44 1011.09 1011.71 1012.27 1012.75 1013.14 1013.43 1013.62 1013.76 1013.85 1013.93 1014.02 1014.13 1014.27
1004.16 1004.53 1004.79 1004.96 1005.07 1005.14 1005.18 1005.17 1005.07 1004.82 1004.39 1003.78 1002.99 1002.10 1001.21 1000.44 999.91 999.70 999.85 1000.35 1001.15 1002.15 1003.26 1004.37 1005.41 1006.34 1007.15 1007.88 1008.55 1009.21 1009.88 1010.55 1011.22 1011.84 1012.39 1012.84 1013.16 1013.37 1013.48 1013.54 1013.58 1013.64 1013.74 1013.89
1004.43 1004.63 1004.77 1004.88 1005.01 1005.16 1005.34 1005.49 1005.54 1005.42 1005.06 1004.44 1003.58 1002.55 1001.48 1000.52 999.80 999.42 999.45 999.88 1000.65 1001.65 1002.77 1003.89 1004.93 1005.84 1006.62 1007.29 1007.92 1008.54 1009.20 1009.89 1010.60 1011.29 1011.91 1012.42 1012.78 1013.01 1013.11 1013.14 1013.14 1013.17 1013.26 1013.43
1004.80 1004.84 1004.87 1004.93 1005.08 1005.33 1005.65 1005.97 1006.19 1006.20 1005.93 1005.33 1004.42 1003.29 1002.07 1000.92 1000.02 999.49 999.38 999.71 1000.41 1001.37 1002.45 1003.54 1004.53 1005.37 1006.07 1006.67 1007.22 1007.79 1008.42 1009.12 1009.86 1010.61 1011.30 1011.87 1012.29 1012.54 1012.65 1012.66 1012.64 1012.64 1012.71 1012.89
1005.34 1005.25 1005.18 1005.21 1005.39 1005.73 1006.18 1006.66 1007.04 1007.19 1007.01 1006.44 1005.51 1004.30 1002.96 1001.68 1000.62 999.92 999.68 999.88 1000.48 1001.34 1002.35 1003.34 1004.24 1004.98 1005.57 1006.05 1006.50 1006.99 1007.57 1008.26 1009.02 1009.82 1010.56 1011.20 1011.67 1011.97 1012.09 1012.10 1012.07 1012.05 1012.12 1012.30
1006.11 1005.90 1005.75 1005.76 1005.96 1006.37 1006.93 1007.54 1008.05 1008.32 1008.22 1007.71 1006.79 1005.54 1004.12 1002.72 1001.54 1000.70 1000.32 1000.39 1000.85 1001.58 1002.46 1003.33 1004.09 1004.69 1005.14 1005.49 1005.81 1006.20 1006.71 1007.35 1008.11 1008.93 1009.72 1010.42 1010.95 1011.29 1011.45 1011.49 1011.46 1011.44 1011.50 1011.69
1007.09 1006.80 1006.60 1006.57 1006.77 1007.21 1007.83 1008.52 1009.12 1009.47 1009.45 1009.00 1008.11 1006.86 1005.42 1003.96 1002.68 1001.74 1001.23 1001.16 1001.47 1002.06 1002.78 1003.49 1004.09 1004.53 1004.82 1005.01 1005.20 1005.46 1005.87 1006.45 1007.17 1007.99 1008.81 1009.55 1010.14 1010.54 1010.75 1010.82 1010.81 1010.81 1010.88 1011.08
1008.25 1007.91 1007.66 1007.58 1007.75 1008.17 1008.78 1009.48 1010.11 1010.51 1010.55 1010.15 1009.32 1008.12 1006.70 1005.24 1003.93 1002.93 1002.32 1002.12 1002.29 1002.72 1003.27 1003.81 1004.23 1004.50 1004.63 1004.66 1004.70 1004.82 1005.11 1005.60 1006.26 1007.04 1007.86 1008.62 1009.25 1009.71 1009.98 1010.10 1010.14 1010.17 1010.27 1010.47
1009.51 1009.14 1008.84 1008.70 1008.79 1009.13 1009.67 1010.31 1010.91 1011.31 1011.39 1011.06 1010.30 1009.20 1007.86 1006.46 1005.18 1004.16 1003.49 1003.19 1003.23 1003.51 1003.89 1004.26 1004.52 1004.62 1004.58 1004.47 1004.35 1004.33 1004.49 1004.85 1005.42 1006.13 1006.91 1007.67 1008.33 1008.83 1009.16 1009.34 1009.44 1009.52 1009.65 1009.87
1010.77 1010.38 1010.03 1009.80 1009.77 1009.98 1010.39 1010.92 1011.44 1011.81 1011.90 1011.64 1011.00 1010.03 1008.83 1007.55 1006.35 1005.36 1004.68 1004.32 1004.25 1004.38 1004.61 1004.82 1004.92 1004.88 1004.70 1004.44 1004.18 1004.02 1004.03 1004.25 1004.69 1005.30 1006.00 1006.72 1007.38 1007.91 1008.29 1008.54 1008.71 1008.84 1009.00 1009.25
1011.92 1011.53 1011.13 1010.80 1010.63 1010.68 1010.91 1011.29 1011.70 1012.01 1012.12 1011.93 1011.43 1010.62 1009.60 1008.49 1007.42 1006.52 1005.85 1005.45 1005.30 1005.31 1005.40 1005.47 1005.44 1005.26 1004.96 1004.57 1004.19 1003.88 1003.75 1003.82 1004.10 1004.57 1005.17 1005.81 1006.43 1006.97 1007.39 1007.70 1007.92 1008.12 1008.32 1008.59
1012.90 1012.52 1012.07 1011.64 1011.34 1011.21 1011.26 1011.47 1011.76 1012.01 1012.14 1012.04 1011.68 1011.07 1010.25 1009.33 1008.42 1007.61 1006.98 1006.57 1006.34 1006.24 1006.21 1006.15 1006.00 1005.71 1005.31 1004.83 1004.33 1003.90 1003.62 1003.54 1003.66 1003.97 1004.43 1004.96 1005.52 1006.03 1006.47 1006.82 1007.11 1007.35 1007.61 1007.90
1013.65 1013.29 1012.82 1012.32 1011.90 1011.61 1011.51 1011.57 1011.75 1011.95 1012.09 1012.08 1011.87 1011.45 1010.85 1010.12 1009.36 1008.66 1008.06 1007.62 1007.31 1007.12 1006.96 1006.79 1006.53 1006.16 1005.68 1005.12 1004.54 1004.02 1003.61 1003.37 1003.33 1003.48 1003.78 1004.19 1004.66 1005.13 1005.57 1005.95 1006.28 1006.58 1006.87 1007.19
1014.17 1013.85 1013.39 1012.85 1012.35 1011.96 1011.73 1011.68 1011.78 1011.95 1012.11 1012.19 1012.12 1011.87 1011.45 1010.89 1010.25 1009.62 1009.04 1008.54 1008.15 1007.83 1007.56 1007.27 1006.92 1006.48 1005.95 1005.35 1004.72 1004.13 1003.63 1003.27 1003.09 1003.08 1003.24 1003.53 1003.90 1004.31 1004.73 1005.13 1005.49 1005.84 1006.16 1006.50
1014.49 1014.24 1013.81 1013.29 1012.76 1012.32 1012.03 1011.92 1011.96 1012.11 1012.30 1012.45 1012.48 1012.36 1012.06 1011.61 1011.05 1010.43 1009.82 1009.24 1008.73 1008.28 1007.87 1007.46 1007.03 1006.55 1005.99 1005.39 1004.76 1004.14 1003.60 1003.17 1002.88 1002.76 1002.80 1002.97 1003.26 1003.62 1004.01 1004.42 1004.81 1005.18 1005.54 1005.89
1014.68 1014.50 1014.15 1013.68 1013.19 1012.76 1012.46 1012.32 1012.35 1012.49 1012.69 1012.88 1012.96 1012.90 1012.67 1012.25 1011.68 1011.02 1010.31 1009.60 1008.93 1008.32 1007.77 1007.26 1006.75 1006.24 1005.69 1005.12 1004.53 1003.96 1003.43 1002.99 1002.66 1002.48 1002.44 1002.54 1002.76 1003.08 1003.45 1003.86 1004.28 1004.68 1005.05 1005.41
1014.80 1014.71 1014.45 1014.08 1013.67 1013.30 1013.03 1012.91 1012.94 1013.07 1013.27 1013.44 1013.52 1013.44 1013.18 1012.70 1012.06 1011.27 1010.41 1009.53 1008.68 1007.89 1007.18 1006.56 1005.99 1005.47 1004.97 1004.47 1003.98 1003.50 1003.06 1002.68 1002.38 1002.20 1002.15 1002.22 1002.42 1002.71 1003.09 1003.50 1003.93 1004.35 1004.75 1005.10
1014.93 1014.93 1014.78 1014.52 1014.22 1013.94 1013.74 1013.65 1013.68 1013.79 1013.94 1014.05 1014.05 1013.89 1013.51 1012.90 1012.10 1011.13 1010.07 1008.98 1007.92 1006.94 1006.08 1005.35 1004.75 1004.24 1003.81 1003.43 1003.08 1002.76 1002.46 1002.21 1002.02 1001.91 1001.91 1002.01 1002.22 1002.52 1002.91 1003.34 1003.78 1004.22 1004.62 1004.97
1015.10 1015.18 1015.14 1015.01 1014.83 1014.65 1014.52 1014.47 1014.49 1014.56 1014.63 1014.62 1014.49 1014.16 1013.61 1012.81 1011.79 1010.61 1009.32 1008.00 1006.73 1005.57 1004.57 1003.75 1003.12 1002.65 1002.31 1002.07 1001.90 1001.77 1001.67 1001.61 1001.58 1001.60 1001.69 1001.86 1002.12 1002.46 1002.86 1003.31 1003.77 1004.21 1004.62 1004.96
1015.32 1015.47 1015.53 1015.51 1015.45 1015.37 1015.31 1015.28 1015.28 1015.28 1015.23 1015.08 1014.76 1014.24 1013.47 1012.44 1011.20 1009.78 1008.26 1006.73 1005.27 1003.95 1002.83 1001.95 1001.30 1000.88 1000.65 1000.56 1000.57 1000.66 1000.77 1000.91 1001.07 1001.25 1001.47 1001.74 1002.07 1002.45 1002.88 1003.35 1003.82 1004.26 1004.67 1005.00
1015.56 1015.77 1015.92 1016.00 1016.03 1016.04 1016.03 1016.01 1015.96 1015.87 1015.69 1015.37 1014.86 1014.12 1013.13 1011.89 1010.42 1008.80 1007.09 1005.39 1003.77 1002.33 1001.13 1000.20 999.56 999.19 999.05 999.10 999.28 999.55 999.87 1000.20 1000.54 1000.88 1001.23 1001.60 1002.00 1002.42 1002.88 1003.36 1003.83 1004.27 1004.67 1005.00
1015.78 1016.04 1016.25 1016.41 1016.52 1016.58 1016.61 1016.58 1016.49 1016.30 1015.98 1015.49 1014.80 1013.86 1012.68 1011.25 1009.62 1007.85 1006.01 1004.19 1002.49 1000.98 999.73 998.78 998.15 997.82 997.75 997.90 998.21 998.62 999.08 999.57 1000.05 1000.51 1000.96 1001.40 1001.85 1002.31 1002.78 1003.26 1003.72 1004.15 1004.54 1004.87
1015.92 1016.21 1016.47 1016.69 1016.86 1016.97 1017.01 1016.96 1016.81 1016.53 1016.09 1015.46 1014.61 1013.53 1012.21 1010.66 1008.94 1007.09 1005.21 1003.36 1001.63 1000.11 998.86 997.92 997.29 996.98 996.94 997.14 997.50 997.98 998.52 999.08 999.64 1000.17 1000.67 1001.15 1001.62 1002.09 1002.55 1003.01 1003.46 1003.88 1004.26 1004.58
1015.94 1016.25 1016.54 1016.81 1017.02 1017.16 1017.21 1017.14 1016.95 1016.59 1016.05 1015.32 1014.36 1013.19 1011.81 1010.22 1008.49 1006.66 1004.81 1003.01 1001.34 999.87 998.65 997.73 997.12 996.80 996.75 996.92 997.26 997.72 998.25 998.81 999.35 999.88 1000.38 1000.85 1001.31 1001.76 1002.20 1002.64 1003.07 1003.47 1003.85 1004.18
1015.80 1016.13 1016.46 1016.76 1017.00 1017.16 1017.22 1017.14 1016.90 1016.49 1015.89 1015.10 1014.10 1012.90 1011.52 1009.98 1008.32 1006.60 1004.87 1003.20 1001.64 1000.27 999.13 998.24 997.63 997.27 997.16 997.25 997.50 997.87 998.30 998.76 999.23 999.69 1000.13 1000.56 1000.98 1001.39 1001.80 1002.22 1002.63 1003.03 1003.40 1003.74
1015.51 1015.87 1016.22 1016.55 1016.83 1017.01 1017.06 1016.97 1016.71 1016.28 1015.65 1014.84 1013.85 1012.69 1011.38 1009.95 1008.43 1006.88 1005.33 1003.84 1002.46 1001.22 1000.17 999.33 998.71 998.31 998.10 998.06 998.16 998.36 998.64 998.96 999.29 999.64 999.99 1000.35 1000.71 1001.09 1001.48 1001.88 1002.28 1002.68 1003.06 1003.41
Thickness
5860 5848 5843 5854 5860 5857 5855 5851 5850 5861 5876 5866 5854 5854 5862 5868 5862 5854 5848 5846 5844 5841 5842 5841 5837 5833 5827 5821 5816 5811 5808 5804 5801 5797 5793 5789 5787 5788 5787 5786 5784 5781 5779 5778
5844 5841 5859 5870 5868 5861 5855 5850 5853 5864 5875 5866 5857 5857 5868 5869 5865 5862 5857 5852 5847 5845 5843 5839 5837 5833 5828 5822 5817 5813 5809 5806 5803 5800 5797 5794 5791 5789 5788 5787 5785 5782 5780 5779
5834 5852 5870 5863 5855 5848 5850 5849 5852 5853 5864 5869 5858 5847 5858 5869 5873 5871 5867 5862 5856 5851 5845 5840 5837 5834 5830 5824 5820 5816 5812 5808 5805 5803 5799 5796 5793 5789 5788 5786 5784 5784 5782 5780
5843 5860 5859 5852 5849 5849 5840 5861 5859 5854 5845 5842 5850 5822 5844 5858 5862 5864 5863 5862 5859 5856 5851 5845 5840 5836 5832 5829 5825 5820 5814 5810 5807 5805 5800 5795 5790 5786 5787 5787 5786 5784 5783 5781
5840 5852 5849 5843 5851 5854 5850 5865 5859 5853 5845 5837 5846 5833 5840 5857 5851 5857 5863 5865 5864 5860 5854 5849 5845 5841 5838 5834 5828 5822 5816 5811 5808 5806 5802 5797 5794 5791 5791 5790 5787 5785 5784 5783
5849 5863 5861 5856 5863 5863 5861 5855 5853 5851 5842 5819 5838 5834 5831 5850 5853 5858 5864 5866 5865 5863 5858 5853 5849 5845 5840 5837 5831 5825 5817 5812 5810 5807 5804 5800 5796 5793 5791 5788 5786 5784 5783 5782
5832 5848 5862 5864 5847 5855 5849 5829 5812 5809 5810 5814 5845 5838 5838 5860 5870 5869 5865 5865 5867 5865 5858 5852 5846 5842 5839 5836 5832 5827 5819 5813 5811 5808 5804 5802 5799 5795 5792 5789 5787 5785 5783 5782
5815 5822 5848 5855 5846 5838 5839 5832 5805 5792 5798 5814 5835 5831 5847 5869 5876 5876 5873 5869 5867 5863 5859 5854 5849 5844 5839 5836 5833 5828 5821 5815 5812 5808 5804 5803 5800 5797 5794 5792 5790 5787 5786 5785
5815 5821 5852 5857 5857 5847 5831 5832 5843 5824 5816 5809 5821 5837 5854 5867 5865 5867 5867 5865 5862 5860 5858 5853 5850 5845 5840 5835 5831 5828 5822 5817 5813 5809 5805 5802 5800 5797 5795 5793 5791 5789 5787 5786
5821 5810 5837 5853 5852 5849 5843 5837 5828 5812 5791 5787 5808 5820 5829 5842 5847 5855 5857 5854 5856 5857 5855 5852 5847 5844 5841 5835 5831 5826 5823 5818 5814 5810 5806 5803 5800 5797 5795 5792 5790 5788 5787 5785
5823 5806 5818 5831 5826 5825 5828 5823 5820 5816 5811 5792 5787 5808 5851 5848 5846 5848 5851 5852 5851 5849 5850 5848 5846 5842 5839 5835 5831 5828 5823 5817 5813 5810 5806 5802 5799 5797 5793 5790 5788 5786 5785 5783
5818 5808 5799 5816 5839 5847 5834 5826 5818 5799 5797 5803 5796 5807 5856 5855 5855 5852 5848 5846 5846 5846 5845 5842 5840 5837 5834 5830 5828 5825 5821 5816 5812 5809 5804 5800 5798 5795 5791 5788 5786 5784 5781 5780
5803 5791 5777 5790 5811 5827 5821 5824 5824 5817 5808 5800 5794 5807 5851 5850 5846 5844 5839 5836 5836 5836 5836 5833 5829 5825 5825 5824 5823 5820 5818 5814 5810 5806 5801 5798 5795 5792 5789 5786 5784 5781 5779 5776
5799 5785 5776 5771 5789 5806 5805 5812 5818 5810 5798 5796 5802 5810 5827 5831 5830 5830 5829 5827 5827 5826 5825 5823 5820 5818 5817 5816 5815 5814 5812 5811 5808 5804 5799 5794 5792 5789 5786 5784 5781 5779 5776 5773
5792 5775 5780 5788 5799 5805 5803 5807 5811 5805 5803 5795 5803 5807 5815 5820 5821 5819 5819 5816 5814 5813 5813 5812 5810 5808 5807 5806 5805 5805 5806 5805 5803 5799 5795 5791 5789 5786 5783 5780 5778 5776 5773 5772
5783 5769 5771 5772 5788 5792 5792 5802 5806 5805 5805 5802 5802 5803 5820 5820 5817 5810 5808 5805 5802 5801 5801 5802 5801 5799 5797 5797 5796 5797 5798 5798 5796 5793 5790 5788 5784 5781 5778 5776 5774 5772 5769 5768
5769 5760 5752 5755 5773 5778 5771 5791 5798 5800 5805 5801 5791 5799 5808 5801 5798 5798 5798 5796 5793 5794 5793 5792 5790 5789 5789 5789 5789 5789 5790 5791 5788 5785 5783 5781 5778 5775 5773 5771 5769 5766 5764 5761
5761 5752 5748 5746 5749 5736 5773 5805 5803 5795 5796 5801 5797 5796 5796 5791 5791 5793 5792 5788 5786 5786 5785 5783 5783 5782 5782 5783 5783 5782 5782 5780 5779 5777 5775 5774 5771 5768 5766 5764 5762 5760 5758 5754
5766 5750 5740 5736 5733 5745 5773 5787 5788 5777 5774 5787 5783 5784 5786 5788 5784 5779 5781 5780 5776 5777 5776 5775 5776 5776 5775 5774 5774 5773 5771 5771 5770 5768 5766 5765 5763 5760 5758 5757 5755 5754 5750 5747
5758 5749 5734 5729 5720 5722 5755 5780 5789 5774 5755 5771 5772 5769 5771 5770 5755 5756 5767 5768 5766 5767 5767 5767 5768 5768 5765 5765 5764 5761 5760 5760 5759 5759 5758 5756 5754 5751 5749 5748 5748 5746 5742 5739
5732 5728 5722 5720 5719 5735 5758 5774 5772 5739 5737 5760 5763 5760 5759 5752 5748 5752 5756 5757 5756 5755 5756 5757 5756 5755 5753 5754 5753 5750 5750 5750 5751 5751 5748 5746 5745 5744 5742 5740 5738 5736 5734 5731
5724 5719 5716 5716 5711 5720 5752 5754 5742 5737 5750 5752 5752 5751 5748 5745 5746 5745 5744 5745 5745 5744 5745 5745 5743 5743 5743 5743 5742 5739 5738 5741 5742 5741 5739 5737 5736 5736 5735 5731 5729 5727 5724 5722
5724 5723 5721 5718 5717 5731 5739 5738 5740 5743 5738 5739 5741 5743 5740 5737 5735 5735 5734 5734 5735 5734 5733 5733 5732 5730 5731 5731 5731 5729 5729 5731 5732 5730 5728 5727 5726 5726 5725 5722 5720 5718 5716 5713
5720 5726 5716 5711 5717 5722 5727 5728 5730 5730 5728 5730 5731 5732 5731 5728 5727 5726 5725 5724 5724 5724 5722 5723 5722 5719 5719 5720 5721 5721 5721 5721 5721 5719 5718 5717 5716 5715 5714 5713 5711 5708 5705 5703
5703 5706 5702 5699 5706 5709 5712 5714 5715 5717 5719 5719 5720 5722 5722 5719 5718 5717 5716 5715 5715 5714 5712 5712 5709 5708 5708 5710 5711 5712 5712 5712 5710 5709 5708 5707 5706 5705 5703 5701 5699 5698 5695 5693
5697 5694 5689 5688 5696 5694 5695 5702 5705 5703 5703 5705 5706 5707 5710 5710 5709 5708 5706 5706 5705 5703 5702 5701 5699 5698 5698 5700 5701 5703 5704 5703 5701 5699 5698 5699 5698 5696 5694 5691 5688 5684 5684 5682